Howell, MI

8:34 AM EDT on March 25, 2017 (GMT -0400)
Livingston County

Weather History for KOZW - January, 2013

Change the Weather History Date:

Friday, January 25, 2013

  Actual Average Record
Temperature  
Mean Temperature 16 °F -  
Max Temperature 20 °F 29 °F 46 °F (2002)
Min Temperature 12 °F 15 °F -11 °F (2004)
Degree Days  
Heating Degree Days 49    
Moisture  
Dew Point 10 °F    
Average Humidity 73    
Maximum Humidity 85    
Minimum Humidity 55    
Precipitation  
Precipitation 0.00 in - - ()
Sea Level Pressure  
Sea Level Pressure 30.13 in    
Wind  
Wind Speed 6 mph (SSE)    
Max Wind Speed 12 mph    
Max Gust Speed -    
Visibility 5 miles    
Events Snow    
Averages and records for this station are not official NWS values.
T = Trace of Precipitation, MM = Missing Value Source: NWS Daily Summary

Daily Weather History Graph

Daily Weather History Graph

Search for Another Location

Airport or City:

Trip Planner

Search our weather history database for the weather conditions in past years. The results will help you decide how hot, cold, wet, or windy it might be!

Date:

Astronomy

Jan. 25, 2013 Rise Set
Actual Time 7:56 AM EST 5:40 PM EST
Civil Twilight 7:26 AM EST 6:11 PM EST
Nautical Twilight 6:51 AM EST 6:45 PM EST
Astronomical Twilight 6:18 AM EST 7:18 PM EST
Moon 4:37 PM EST 6:35 AM EST
Length of Visible Light 10h 45m
Length of Day
9h 44m
Waxing Gibbous, 98% of the Moon is Illuminated
Jan 25
Waxing Gibbous
Jan 26
Full
Feb 3
Last Quarter
Feb 10
New
Feb 17
First Quarter

Hourly Weather History & Observations

Time (EST) Temp. Windchill Dew Point Humidity Pressure Visibility Wind Dir Wind Speed Gust Speed Precip Events Conditions
12:14 AM 12.7 °F 6.7 °F -0.4 °F 56% 30.45 in 10.0 mi SE 3.5 mph - N/A   Overcast
12:35 AM 12.9 °F - -0.4 °F 55% 30.44 in 10.0 mi Calm Calm - N/A   Mostly Cloudy
12:54 AM 12.9 °F 6.9 °F -0.2 °F 56% 30.43 in 10.0 mi ESE 3.5 mph - N/A   Clear
1:14 AM 13.1 °F 7.1 °F -0.4 °F 55% 30.42 in 10.0 mi ESE 3.5 mph - N/A   Scattered Clouds
1:35 AM 13.1 °F 5.4 °F 0.1 °F 56% 30.42 in 10.0 mi SE 4.6 mph - N/A   Mostly Cloudy
1:54 AM 13.5 °F 7.5 °F 0.9 °F 57% 30.41 in 10.0 mi SSE 3.5 mph - N/A   Overcast
2:15 AM 13.5 °F 3.3 °F 1.2 °F 58% 30.40 in 10.0 mi SSE 6.9 mph - N/A   Overcast
2:35 AM 13.6 °F 4.6 °F 2.1 °F 60% 30.39 in 10.0 mi SE 5.8 mph - N/A   Overcast
2:54 AM 13.6 °F 3.5 °F 2.7 °F 62% 30.38 in 10.0 mi SE 6.9 mph - N/A   Overcast
3:15 AM 13.6 °F 3.5 °F 3.0 °F 63% 30.36 in 10.0 mi SE 6.9 mph - N/A   Overcast
3:34 AM 13.8 °F 3.7 °F 3.2 °F 63% 30.35 in 10.0 mi SSE 6.9 mph - N/A   Overcast
3:54 AM 14.0 °F 6.5 °F 3.2 °F 62% 30.35 in 10.0 mi SSE 4.6 mph - N/A   Overcast
4:15 AM 14.5 °F 4.6 °F 3.7 °F 62% 30.33 in 10.0 mi SSE 6.9 mph - N/A   Overcast
4:34 AM 14.7 °F 7.3 °F 4.1 °F 63% 30.32 in 10.0 mi SE 4.6 mph - N/A   Overcast
4:54 AM 14.9 °F 5.0 °F 4.6 °F 64% 30.30 in 10.0 mi SE 6.9 mph - N/A   Overcast
5:15 AM 14.9 °F 5.0 °F 4.8 °F 64% 30.29 in 10.0 mi SE 6.9 mph - N/A   Overcast
5:34 AM 14.9 °F 3.1 °F 5.0 °F 65% 30.27 in 10.0 mi SE 9.2 mph - N/A   Overcast
5:54 AM 15.3 °F 4.4 °F 5.0 °F 64% 30.25 in 10.0 mi SE 8.1 mph - N/A   Overcast
6:15 AM 15.4 °F 4.6 °F 5.5 °F 65% 30.25 in 10.0 mi SE 8.1 mph - N/A   Overcast
6:34 AM 15.3 °F 6.6 °F 5.4 °F 65% 30.24 in 7.0 mi SE 5.8 mph - N/A   Overcast
6:55 AM 15.3 °F 4.4 °F 6.8 °F 69% 30.23 in 3.0 mi SE 8.1 mph - N/A Snow Light Snow
7:15 AM 14.9 °F 4.0 °F 8.1 °F 74% 30.22 in 2.5 mi SE 8.1 mph - N/A Snow Light Snow
7:34 AM 14.7 °F 2.9 °F 8.8 °F 77% 30.21 in 2.5 mi SE 9.2 mph - N/A Snow Light Snow
7:55 AM 14.7 °F 2.9 °F 9.3 °F 79% 30.20 in 2.0 mi SE 9.2 mph - N/A Snow Light Snow
8:34 AM 15.4 °F 3.8 °F 10.4 °F 80% 30.17 in 3.0 mi SE 9.2 mph - N/A Snow Light Snow
8:55 AM 15.6 °F 4.0 °F 10.8 °F 81% 30.16 in 1.0 mi SE 9.2 mph - N/A Snow Light Snow
9:14 AM 15.8 °F 2.7 °F 11.1 °F 82% 30.16 in 0.5 mi SE 11.5 mph - N/A Snow Snow
9:34 AM 15.8 °F 5.1 °F 11.3 °F 82% 30.16 in 0.2 mi SSE 8.1 mph - N/A Snow Snow
9:55 AM 15.8 °F 4.2 °F 11.3 °F 82% 30.15 in 0.5 mi SE 9.2 mph - N/A Snow Light Snow
10:14 AM 16.3 °F 4.1 °F 11.3 °F 81% 30.13 in 2.5 mi SE 10.4 mph - N/A Snow Light Snow
10:34 AM 16.9 °F 4.8 °F 11.8 °F 81% 30.13 in 1.2 mi SE 10.4 mph - N/A Snow Light Snow
10:55 AM 17.4 °F 7.1 °F 12.0 °F 79% 30.12 in 1.5 mi SE 8.1 mph - N/A Snow Light Snow
11:14 AM 18.0 °F 7.7 °F 12.2 °F 78% 30.11 in 1.8 mi SSE 8.1 mph - N/A Snow Light Snow
11:35 AM 18.5 °F 8.4 °F 12.2 °F 76% 30.10 in 2.5 mi SSE 8.1 mph - N/A Snow Light Snow
11:55 AM 19.0 °F 7.5 °F 12.2 °F 75% 30.10 in 2.5 mi South 10.4 mph - N/A Snow Light Snow
12:14 PM 19.2 °F 7.7 °F 12.2 °F 74% 30.08 in 2.0 mi SSE 10.4 mph - N/A Snow Light Snow
12:35 PM 19.4 °F 8.6 °F 12.6 °F 75% 30.06 in 1.8 mi SSE 9.2 mph - N/A Snow Light Snow
12:54 PM 19.8 °F 9.1 °F 12.9 °F 75% 30.05 in 1.8 mi South 9.2 mph - N/A Snow Light Snow
1:14 PM 19.9 °F 10.1 °F 12.6 °F 73% 30.04 in 3.0 mi SSE 8.1 mph - N/A Snow Light Snow
1:35 PM 19.9 °F 11.1 °F 12.0 °F 71% 30.03 in 4.0 mi South 6.9 mph - N/A Snow Light Snow
1:54 PM 20.1 °F 11.3 °F 12.2 °F 71% 30.01 in 4.0 mi SSE 6.9 mph - N/A Snow Light Snow
2:15 PM 20.3 °F 10.6 °F 12.2 °F 71% 30.00 in 2.5 mi SSE 8.1 mph - N/A Snow Light Snow
2:35 PM 20.1 °F 12.3 °F 12.6 °F 73% 30.00 in 4.0 mi South 5.8 mph - N/A Snow Light Snow
2:54 PM 20.3 °F 10.6 °F 12.7 °F 73% 29.99 in 3.0 mi South 8.1 mph - N/A Snow Light Snow
3:15 PM 20.3 °F 10.6 °F 12.7 °F 73% 29.98 in 4.0 mi SSE 8.1 mph - N/A Snow Light Snow
3:35 PM 20.3 °F 11.5 °F 12.2 °F 71% 29.98 in 7.0 mi SSE 6.9 mph - N/A Snow Light Snow
3:54 PM 20.3 °F 13.8 °F 12.0 °F 70% 29.98 in 7.0 mi South 4.6 mph - N/A Snow Light Snow
4:15 PM 20.1 °F 11.3 °F 12.6 °F 73% 29.98 in 5.0 mi SSE 6.9 mph - N/A Snow Light Snow
4:34 PM 19.9 °F 12.1 °F 12.6 °F 73% 29.98 in 2.0 mi SSE 5.8 mph - N/A Snow Light Snow
4:54 PM 19.8 °F 10.8 °F 13.1 °F 75% 29.97 in 2.0 mi SSE 6.9 mph - N/A Snow Light Snow
5:15 PM 19.4 °F 10.4 °F 13.3 °F 77% 29.96 in 3.0 mi SE 6.9 mph - N/A Snow Light Snow
5:34 PM 19.4 °F 11.5 °F 13.1 °F 76% 29.98 in 5.0 mi SSE 5.8 mph - N/A Snow Light Snow
5:54 PM 19.4 °F 11.5 °F 13.3 °F 77% 29.99 in 5.0 mi South 5.8 mph - N/A Snow Light Snow
6:15 PM 19.4 °F 11.5 °F 13.8 °F 79% 29.99 in 2.0 mi South 5.8 mph - N/A Snow Light Snow
6:34 PM 19.2 °F 12.5 °F 14.4 °F 81% 29.99 in 1.5 mi South 4.6 mph - N/A Snow Light Snow
6:54 PM 18.9 °F 12.1 °F 14.4 °F 83% 29.98 in 3.0 mi South 4.6 mph - N/A Snow Light Snow
7:15 PM 18.7 °F 13.5 °F 14.5 °F 84% 29.99 in 7.0 mi South 3.5 mph - N/A Snow Light Snow
7:34 PM 18.9 °F 13.7 °F 14.5 °F 83% 29.99 in 5.0 mi South 3.5 mph - N/A Snow Light Snow
7:55 PM 18.9 °F 13.7 °F 14.5 °F 83% 29.99 in 3.0 mi SSE 3.5 mph - N/A Snow Light Snow
8:15 PM 18.9 °F 12.1 °F 14.7 °F 84% 29.99 in 5.0 mi SSE 4.6 mph - N/A Snow Light Snow
8:34 PM 18.7 °F 11.9 °F 14.5 °F 84% 29.99 in 7.0 mi SSE 4.6 mph - N/A Snow Light Snow
8:55 PM 19.0 °F 11.1 °F 14.9 °F 84% 29.99 in 7.0 mi South 5.8 mph - N/A Snow Light Snow
9:15 PM 19.4 °F 11.5 °F 14.9 °F 83% 29.99 in 10.0 mi South 5.8 mph - N/A   Overcast
9:34 PM 19.4 °F 10.4 °F 14.9 °F 83% 29.99 in 7.0 mi South 6.9 mph - N/A Snow Light Snow
9:55 PM 19.4 °F 11.5 °F 14.9 °F 83% 29.99 in 5.0 mi South 5.8 mph - N/A Snow Light Snow
10:14 PM 19.4 °F 12.8 °F 14.9 °F 83% 29.99 in 5.0 mi South 4.6 mph - N/A Snow Light Snow
10:34 PM 19.4 °F 12.8 °F 15.1 °F 83% 29.99 in 5.0 mi SSE 4.6 mph - N/A Snow Light Snow
10:55 PM 19.4 °F - 15.3 °F 84% 29.99 in 5.0 mi Calm Calm - N/A Snow Light Snow
11:14 PM 19.4 °F 11.5 °F 15.3 °F 84% 29.99 in 5.0 mi South 5.8 mph - N/A Snow Light Snow
11:34 PM 19.4 °F 14.3 °F 15.3 °F 84% 30.00 in 7.0 mi South 3.5 mph - N/A   Overcast
11:55 PM 19.2 °F 14.1 °F 15.3 °F 85% 30.00 in 7.0 mi South 3.5 mph - N/A   Overcast